TimeEDT,TemperatureF,Dew PointF,Humidity,Sea Level PressureIn,VisibilityMPH,Wind Direction,Wind SpeedMPH,Gust SpeedMPH,PrecipitationIn,Events,Conditions,WindDirDegrees,DateUTC
12:56 AM,62.1,51.1,67,30.02,10.0,WSW,4.6,-,N/A,,Overcast,240,2013-09-05 04:56:00
1:56 AM,61.0,53.1,75,30.01,10.0,West,10.4,-,0.00,Rain,Light Rain,270,2013-09-05 05:56:00
2:12 AM,60.8,53.6,77,30.04,10.0,West,5.8,-,0.00,,Overcast,280,2013-09-05 06:12:00
2:56 AM,62.1,54.0,75,30.02,10.0,NW,6.9,-,0.00,,Overcast,310,2013-09-05 06:56:00
3:56 AM,61.0,54.0,78,30.02,10.0,WNW,9.2,-,N/A,,Overcast,290,2013-09-05 07:56:00
4:16 AM,60.8,55.4,82,30.05,10.0,WNW,11.5,-,N/A,,Overcast,290,2013-09-05 08:16:00
4:54 AM,60.8,53.6,77,30.06,10.0,NW,11.5,-,N/A,,Overcast,310,2013-09-05 08:54:00
4:56 AM,60.1,53.1,78,30.04,10.0,NW,10.4,-,N/A,,Overcast,310,2013-09-05 08:56:00
5:27 AM,57.2,53.6,88,30.08,10.0,NNW,12.7,-,N/A,,Overcast,340,2013-09-05 09:27:00
5:41 AM,57.2,53.6,88,30.08,10.0,NNW,10.4,-,N/A,,Overcast,340,2013-09-05 09:41:00
5:49 AM,57.2,53.6,88,30.08,10.0,North,9.2,18.4,N/A,,Overcast,350,2013-09-05 09:49:00
5:53 AM,57.2,53.6,88,30.08,10.0,North,9.2,20.7,N/A,,Overcast,350,2013-09-05 09:53:00
5:56 AM,57.0,52.0,83,30.07,10.0,North,11.5,20.7,N/A,,Overcast,350,2013-09-05 09:56:00
6:09 AM,55.4,51.8,88,30.10,10.0,North,12.7,20.7,N/A,,Overcast,350,2013-09-05 10:09:00
6:36 AM,53.6,48.2,82,30.11,10.0,NNW,10.4,-,N/A,,Scattered Clouds,330,2013-09-05 10:36:00
6:56 AM,52.0,48.0,86,30.10,10.0,NNW,9.2,-,N/A,,Clear,330,2013-09-05 10:56:00
7:15 AM,51.8,48.2,88,30.11,10.0,NNW,5.8,-,N/A,,Partly Cloudy,330,2013-09-05 11:15:00
7:56 AM,54.0,48.9,83,30.12,10.0,NNW,6.9,-,N/A,,Clear,340,2013-09-05 11:56:00
8:56 AM,55.9,45.0,67,30.13,10.0,North,8.1,-,N/A,,Partly Cloudy,350,2013-09-05 12:56:00
9:56 AM,57.9,45.0,62,30.14,10.0,NNW,8.1,-,N/A,,Scattered Clouds,340,2013-09-05 13:56:00
10:56 AM,59.0,45.0,60,30.15,10.0,North,10.4,-,N/A,,Scattered Clouds,360,2013-09-05 14:56:00
11:56 AM,61.0,43.0,52,30.15,10.0,NNW,6.9,-,N/A,,Partly Cloudy,340,2013-09-05 15:56:00
12:56 PM,62.1,44.1,52,30.15,10.0,North,6.9,-,N/A,,Mostly Cloudy,350,2013-09-05 16:56:00
1:56 PM,63.0,43.0,48,30.15,10.0,NW,12.7,20.7,N/A,,Partly Cloudy,320,2013-09-05 17:56:00
2:56 PM,64.0,42.1,45,30.14,10.0,NNW,12.7,18.4,N/A,,Scattered Clouds,330,2013-09-05 18:56:00
3:56 PM,64.9,48.0,54,30.14,10.0,NNW,10.4,-,N/A,,Mostly Cloudy,340,2013-09-05 19:56:00
4:56 PM,61.0,43.0,52,30.16,10.0,NNW,12.7,-,N/A,,Scattered Clouds,330,2013-09-05 20:56:00
5:56 PM,61.0,42.1,50,30.18,10.0,North,13.8,17.3,N/A,,Scattered Clouds,350,2013-09-05 21:56:00
6:56 PM,57.0,39.9,53,30.21,10.0,NNW,9.2,-,N/A,,Clear,340,2013-09-05 22:56:00
7:56 PM,53.1,39.9,61,30.22,10.0,NNW,8.1,-,N/A,,Clear,330,2013-09-05 23:56:00
8:56 PM,50.0,39.9,68,30.24,10.0,NW,5.8,-,N/A,,Clear,320,2013-09-06 00:56:00
9:56 PM,48.9,39.0,69,30.26,10.0,North,3.5,-,N/A,,Clear,350,2013-09-06 01:56:00
10:56 PM,46.0,37.9,73,30.27,10.0,Calm,Calm,-,N/A,,Clear,0,2013-09-06 02:56:00
11:56 PM,45.0,37.0,74,30.27,10.0,Calm,Calm,-,N/A,,Clear,0,2013-09-06 03:56:00